カタログに戻る

CZ-4C R/B

運用中PO
NORAD 57798·ROCKET BODY·🇨🇳 China

打ち上げ Sep 6, 2023 から Jiuquan Satellite Launch Center

Loading…

次のパス (今後24時間)

TLE

最新Source: Space-Track

元期: Sep 14, 2026, 11:34 UTC

1 57798U 23136B   26257.48252246  .00003109  00000-0  20350-3 0  9992
2 57798  98.3139 259.2457 0108428   1.4848 358.6677 15.03879050165331

AllMySatでCZ-4C R/Bをリアルタイム追跡

Download on the App Store